Location: Easthampton
(42.2676°N, 72.6690°W)
Time: 15:25:02
(UTC+00:00)

RS-44 - Pass Details

Date: 19 April 2024
Orbit: 1174 x 1511 km, 82.5° (Epoch: 25 May)

Event Time Altitude Azimuth Distance (km) Brightness Sun altitude
Rises 02:05:59 0° 217° (SW) 4,642 ? -24.6°
Reaches altitude 10° 02:09:16 10° 225° (SW) 3,658 ? -25.0°
Maximum altitude 02:17:11 36° 289° (WNW) 2,195 ? -26.0°
Drops below altitude 10° 02:24:53 10° 353° (N) 3,534 ? -27.0°
Sets 02:28:01 0° 3° (N) 4,468 ? -27.3°
